Location: Sungai Liu
(2.3667°N, 113.8667°E)
Time: 12:05:34
(UTC+00:00)

Centaur AC-42 - Pass Details

Date: 20 May 2022
Orbit: 664 x 36222 km, 20.3° (Epoch: 01 July)

Event Time Altitude Azimuth Distance (km) Brightness Sun altitude
Rises 10:30:37 0° 254° (WSW) 11,346 9.0 -1.4°
Reaches altitude 10° 10:36:51 10° 255° (WSW) 11,989 9.0 -2.9°
Drops below altitude 10° 18:30:22 10° 290° (WNW) 30,205 9.8 -51.2°
Maximum altitude 20:35:03 87° 21° (NNE) 2,020 4.0 -23.9°
Sets 20:42:39 0° 110° (ESE) 3,466 6.1 -22.1°
